Atlantic, IA

10:58 PM CDT on September 24, 2017 (GMT -0500)
Atlantic Municipal

Weather History for KAIO - February, 2013

Change the Weather History Date:

Saturday, February 23, 2013

  Actual Average Record
Temperature  
Mean Temperature 15 °F -  
Max Temperature 30 °F 36 °F 64 °F (2002)
Min Temperature 0 °F 21 °F -5 °F (2015)
Degree Days  
Heating Degree Days 50    
Moisture  
Dew Point 12 °F    
Average Humidity 82    
Maximum Humidity 93    
Minimum Humidity 64    
Precipitation  
Precipitation 0.00 in - - ()
Sea Level Pressure  
Sea Level Pressure 29.92 in    
Wind  
Wind Speed 5 mph (SSW)    
Max Wind Speed 17 mph    
Max Gust Speed -    
Visibility 8 miles    
Events Snow    
Averages and records for this station are not official NWS values.
T = Trace of Precipitation, MM = Missing Value Source: NWS Daily Summary

Daily Weather History Graph

Daily Weather History Graph

Search for Another Location

Airport or City:

Trip Planner

Search our weather history database for the weather conditions in past years. The results will help you decide how hot, cold, wet, or windy it might be!

Date:

Astronomy

Feb. 23, 2013 Rise Set
Actual Time 7:03 AM CST 6:04 PM CST
Civil Twilight 6:35 AM CST 6:32 PM CST
Nautical Twilight 6:03 AM CST 7:04 PM CST
Astronomical Twilight 5:31 AM CST 7:36 PM CST
Moon 4:14 PM CST (2/23) 5:27 AM CST (2/23)
Length of Visible Light 11h 56m
Length of Day
11h 00m
Waxing Gibbous, 95% of the Moon is Illuminated
Feb 23
Waxing Gibbous
Feb 25
Full
Mar 4
Last Quarter
Mar 11
New
Mar 19
First Quarter

Hourly Weather History & Observations

Time (CST) Temp. Windchill Dew Point Humidity Pressure Visibility Wind Dir Wind Speed Gust Speed Precip Events Conditions
12:15 AM 10.4 °F - 8.6 °F 92% 29.99 in 10.0 mi Calm Calm - N/A   Mostly Cloudy
12:35 AM 12.2 °F - 10.4 °F 92% 29.98 in 10.0 mi Calm Calm - N/A   Clear
12:55 AM 12.2 °F - 10.4 °F 92% 29.98 in 10.0 mi Calm Calm - N/A   Clear
1:15 AM 8.6 °F -2.6 °F 6.8 °F 92% 29.99 in 10.0 mi SSW 6.9 mph - N/A   Clear
1:35 AM 8.6 °F 2.0 °F 6.8 °F 92% 29.99 in 10.0 mi South 3.5 mph - N/A   Clear
1:55 AM 8.6 °F 0.1 °F 6.8 °F 92% 29.98 in 9.0 mi SSW 4.6 mph - N/A   Clear
2:15 AM 8.6 °F -1.3 °F 5.0 °F 85% 29.98 in 8.0 mi SSW 5.8 mph - N/A   Clear
2:35 AM 6.8 °F -3.5 °F 5.0 °F 92% 29.98 in 6.0 mi SW 5.8 mph - N/A   Clear
2:55 AM 6.8 °F - 3.2 °F 85% 29.97 in 6.0 mi Calm Calm - N/A   Clear
3:15 AM 8.6 °F 2.0 °F 5.0 °F 85% 29.97 in 5.0 mi SSW 3.5 mph - N/A   Clear
3:35 AM 6.8 °F -3.5 °F 3.2 °F 85% 29.96 in 4.0 mi SSW 5.8 mph - N/A   Partly Cloudy
3:55 AM 3.2 °F -7.8 °F -0.4 °F 85% 29.96 in 6.0 mi SSW 5.8 mph - N/A   Mostly Cloudy
4:15 AM 3.2 °F - -0.4 °F 85% 29.96 in 5.0 mi Calm Calm - N/A   Overcast
4:35 AM 5.0 °F - 1.4 °F 85% 29.96 in 4.0 mi Calm Calm - N/A   Overcast
4:55 AM 3.2 °F - -2.2 °F 78% 29.96 in 4.0 mi Calm Calm - N/A   Haze
5:15 AM 5.0 °F - 1.4 °F 85% 29.96 in 4.0 mi Calm Calm - N/A   Mostly Cloudy
5:35 AM 3.2 °F -4.2 °F -2.2 °F 78% 29.96 in 4.0 mi SSW 3.5 mph - N/A   Haze
5:55 AM -0.4 °F - -4.0 °F 85% 29.96 in 4.0 mi Calm Calm - N/A   Haze
6:15 AM 1.4 °F -6.2 °F -4.0 °F 78% 29.96 in 6.0 mi SSW 3.5 mph - N/A   Haze
6:35 AM 3.2 °F -4.2 °F -2.2 °F 78% 29.96 in 4.0 mi South 3.5 mph - N/A Snow Light Snow
6:55 AM -0.4 °F - -4.0 °F 85% 29.95 in 4.0 mi Calm Calm - N/A   Haze
7:15 AM -0.4 °F - -4.0 °F 85% 29.95 in 5.0 mi Calm Calm - N/A   Haze
7:35 AM -0.4 °F - -4.0 °F 85% 29.94 in 3.0 mi Calm Calm - N/A   Haze
7:55 AM 1.4 °F - -2.2 °F 85% 29.94 in 4.0 mi Calm Calm - N/A   Haze
8:15 AM 3.2 °F - -2.2 °F 78% 29.95 in 4.0 mi Calm Calm - N/A   Haze
8:35 AM 3.2 °F - -0.4 °F 85% 29.95 in 5.0 mi Calm Calm - N/A   Haze
8:55 AM 6.8 °F - 3.2 °F 85% 29.95 in 6.0 mi Calm Calm - N/A   Clear
9:15 AM 8.6 °F 2.0 °F 5.0 °F 85% 29.95 in 6.0 mi SW 3.5 mph - N/A   Clear
9:35 AM 10.4 °F 2.2 °F 6.8 °F 85% 29.95 in 7.0 mi SSW 4.6 mph - N/A   Clear
9:55 AM 12.2 °F 0.7 °F 8.6 °F 85% 29.94 in 7.0 mi South 8.1 mph - N/A   Clear
10:15 AM 14.0 °F 2.9 °F 12.2 °F 93% 29.94 in 8.0 mi South 8.1 mph - N/A   Clear
10:35 AM 15.8 °F 5.1 °F 12.2 °F 86% 29.94 in 9.0 mi South 8.1 mph - N/A   Clear
10:55 AM 17.6 °F 8.2 °F 14.0 °F 86% 29.94 in 10.0 mi South 6.9 mph - N/A   Clear
11:15 AM 19.4 °F 10.4 °F 15.8 °F 86% 29.93 in 9.0 mi South 6.9 mph - N/A   Clear
11:35 AM 19.4 °F 9.5 °F 15.8 °F 86% 29.92 in 10.0 mi South 8.1 mph - N/A   Clear
11:55 AM 21.2 °F 12.6 °F 15.8 °F 80% 29.92 in 10.0 mi South 6.9 mph - N/A   Clear
12:15 PM 23.0 °F 13.1 °F 15.8 °F 74% 29.91 in 10.0 mi South 9.2 mph - N/A   Clear
12:35 PM 24.8 °F 15.3 °F 17.6 °F 74% 29.91 in 10.0 mi South 9.2 mph - N/A   Clear
12:55 PM 24.8 °F 16.1 °F 17.6 °F 74% 29.90 in 10.0 mi SSW 8.1 mph - N/A   Clear
1:15 PM 26.6 °F 16.8 °F 19.4 °F 74% 29.89 in 10.0 mi SSW 10.4 mph - N/A   Clear
1:35 PM 28.4 °F 19.1 °F 19.4 °F 69% 29.88 in 10.0 mi SSW 10.4 mph - N/A   Clear
1:55 PM 28.4 °F 18.5 °F 19.4 °F 69% 29.88 in 10.0 mi South 11.5 mph - N/A   Clear
2:15 PM 28.4 °F 17.0 °F 19.4 °F 69% 29.88 in 10.0 mi SSW 15.0 mph - N/A   Clear
2:35 PM 30.2 °F 19.3 °F 19.4 °F 64% 29.87 in 10.0 mi SSW 15.0 mph - N/A   Clear
2:55 PM 28.4 °F 16.2 °F 19.4 °F 69% 29.87 in 10.0 mi SSW 17.3 mph - N/A   Clear
3:15 PM 30.2 °F 19.8 °F 21.2 °F 69% 29.86 in 10.0 mi South 13.8 mph - N/A   Clear
3:35 PM 30.2 °F 21.3 °F 21.2 °F 69% 29.86 in 10.0 mi South 10.4 mph - N/A   Clear
3:55 PM 30.2 °F 21.9 °F 21.2 °F 69% 29.86 in 10.0 mi South 9.2 mph - N/A   Clear
4:15 PM 30.2 °F 21.3 °F 21.2 °F 69% 29.86 in 10.0 mi South 10.4 mph - N/A   Clear
4:35 PM 28.4 °F 18.5 °F 21.2 °F 74% 29.86 in 10.0 mi South 11.5 mph - N/A   Clear
4:55 PM 28.4 °F 19.1 °F 21.2 °F 74% 29.86 in 10.0 mi South 10.4 mph - N/A   Clear
5:15 PM 28.4 °F 18.5 °F 21.2 °F 74% 29.86 in 10.0 mi South 11.5 mph - N/A   Clear
5:35 PM 28.4 °F 19.7 °F 21.2 °F 74% 29.86 in 10.0 mi South 9.2 mph - N/A   Clear
5:55 PM 26.6 °F 16.8 °F 21.2 °F 80% 29.86 in 10.0 mi South 10.4 mph - N/A   Clear
6:15 PM 28.4 °F 18.5 °F 21.2 °F 74% 29.86 in 10.0 mi South 11.5 mph - N/A   Clear
6:55 PM 26.6 °F 18.2 °F 21.2 °F 80% 29.86 in 10.0 mi South 8.1 mph - N/A   Clear
7:15 PM 24.8 °F 15.3 °F 19.4 °F 80% 29.86 in 2.0 mi South 9.2 mph - N/A   Haze
7:35 PM 24.8 °F 15.3 °F 21.2 °F 86% 29.86 in 10.0 mi SSW 9.2 mph - N/A   Clear
7:55 PM 24.8 °F 14.0 °F 19.4 °F 80% 29.87 in 10.0 mi SSW 11.5 mph - N/A   Clear
8:15 PM 24.8 °F 14.6 °F 19.4 °F 80% 29.87 in 10.0 mi South 10.4 mph - N/A   Clear
8:35 PM 23.0 °F 12.4 °F 19.4 °F 86% 29.87 in 10.0 mi South 10.4 mph - N/A   Clear
8:55 PM 23.0 °F 12.4 °F 19.4 °F 86% 29.89 in 10.0 mi South 10.4 mph - N/A   Clear
9:15 PM 23.0 °F 12.4 °F 19.4 °F 86% 29.89 in 10.0 mi South 10.4 mph - N/A   Clear
9:35 PM 24.8 °F 14.0 °F 19.4 °F 80% 29.89 in 10.0 mi South 11.5 mph - N/A   Clear
10:15 PM 23.0 °F 11.7 °F 19.4 °F 86% 29.89 in 10.0 mi SSW 11.5 mph - N/A   Clear
10:35 PM 24.8 °F 14.6 °F 19.4 °F 80% 29.89 in 10.0 mi South 10.4 mph - N/A   Mostly Cloudy
10:55 PM 23.0 °F 12.4 °F 17.6 °F 80% 29.90 in 10.0 mi SSW 10.4 mph - N/A   Overcast
11:15 PM 21.2 °F 11.7 °F 17.6 °F 86% 29.90 in 10.0 mi SSW 8.1 mph - N/A   Mostly Cloudy
11:35 PM 19.4 °F 8.6 °F 17.6 °F 93% 29.90 in 10.0 mi SSW 9.2 mph - N/A   Scattered Clouds
11:55 PM 19.4 °F 9.5 °F 17.6 °F 93% 29.90 in 10.0 mi SSW 8.1 mph - N/A   Clear